Temp
27 27 26 25 25 25 25 25 25 25 26 26 26 25 24 24 24 24 24 25 25 26 26 26 25 26 26 26 27 27 28 27 27 28 28 28 27 27 27 27 27 26 26
28 28 27 26 26 25 25 26 25 26 25 26 25 25 24 24 24 23 23 24 25 25 25 25 25 25 25 26 26 26 26 27 27 26 27 27 27 27 27 27 27 26 27
29 29 28 27 26 26 26 26 26 25 25 25 25 24 23 23 23 24 23 24 24 25 24 25 25 25 25 25 25 25 26 26 26 26 26 26 27 27 27 27 27 26 27
30 30 29 28 27 27 27 26 26 25 24 24 24 24 24 23 24 24 24 24 24 24 24 24 24 24 25 25 24 24 25 25 25 25 25 26 26 26 26 26 25 26 25
31 30 30 29 28 28 27 26 25 25 24 24 24 24 24 24 24 24 24 24 24 24 24 24 24 25 25 25 25 24 24 25 24 24 25 25 25 25 25 25 24 24 25
28 28 29 29 28 28 27 27 25 25 24 24 24 24 24 24 24 25 24 24 24 24 24 24 24 24 24 25 25 25 25 24 24 24 24 23 24 24 24 24 23 23 22
27 27 27 28 27 27 27 26 25 25 24 24 24 24 24 24 25 25 26 25 24 24 24 24 24 25 25 25 25 24 25 24 24 24 22 22 23 24 23 23 23 22 22
26 26 26 26 26 26 26 26 26 24 24 24 24 23 24 24 24 25 26 26 25 25 24 24 24 24 25 24 24 23 23 24 24 24 24 23 22 22 22 21 21 21 21
25 25 24 23 24 23 21 24 25 25 24 24 24 24 23 24 24 25 25 25 25 25 25 25 24 24 24 24 24 23 23 23 23 23 23 22 22 21 21 21 20 21 22
25 23 23 23 23 20 19 20 21 24 24 24 24 24 23 23 24 24 25 24 24 24 24 24 24 24 24 24 24 23 22 23 23 22 20 20 21 21 20 20 19 20 21
23 23 23 23 23 23 26 21 17 23 24 24 24 24 24 24 24 24 24 24 24 25 25 25 25 24 24 24 24 22 22 22 22 22 21 20 21 20 20 19 19 19 20
23 23 22 23 23 21 20 19 18 23 24 23 24 24 24 24 24 24 24 24 24 24 25 26 26 25 24 24 22 22 22 21 21 22 21 21 21 22 20 19 18 18 19
23 22 22 22 23 23 22 22 23 23 23 23 23 23 24 23 24 24 24 24 24 23 24 24 25 24 23 22 22 22 21 21 21 22 22 23 24 22 21 20 19 19 19
23 23 22 23 23 24 23 22 22 23 23 23 23 23 24 24 24 24 24 24 24 23 22 23 23 23 21 21 21 20 20 20 21 22 23 24 22 21 20 20 19 20 19
22 22 23 23 24 25 24 22 22 21 19 19 21 24 24 23 23 23 22 23 22 22 20 20 19 19 19 19 19 20 20 20 21 22 23 23 22 21 21 20 21 21 21
21 22 22 24 25 24 23 20 18 18 18 18 19 16 17 18 19 22 23 21 21 21 20 18 20 19 19 19 19 20 20 20 21 22 23 23 22 22 21 22 22 22 22
20 21 21 22 24 24 22 22 17 15 17 20 20 19 18 19 19 20 19 21 21 21 20 19 20 20 20 21 21 22 22 21 22 22 23 23 23 22 23 22 22 22 22
19 19 20 21 22 24 22 21 19 18 15 16 17 19 20 22 19 19 17 19 20 20 21 22 23 22 22 22 23 23 23 22 22 22 23 23 23 23 23 23 22 22 22
19 19 20 22 23 24 25 21 19 18 17 16 18 18 20 17 18 18 18 20 19 19 21 23 23 23 23 23 24 24 23 23 22 22 23 23 23 22 22 21 21 22 22
18 19 19 20 21 23 24 22 19 18 17 17 16 17 17 18 17 17 19 19 19 20 21 22 23 24 23 23 24 24 24 23 23 22 22 22 22 21 21 21 21 21 22
19 19 20 21 21 23 25 24 21 19 19 19 19 19 20 19 16 17 17 18 20 22 22 23 23 25 25 24 24 24 24 23 22 22 21 22 22 21 21 21 22 22 22
19 19 19 22 23 24 25 26 24 21 20 21 22 21 21 20 19 18 17 19 20 22 23 23 24 25 25 24 24 24 23 23 22 21 21 22 22 22 22 23 23 22 22
18 18 18 21 23 25 26 26 24 24 23 23 23 21 19 19 21 20 19 20 22 23 24 24 24 24 23 23 23 23 23 22 21 21 21 21 21 22 23 23 23 23 23
19 19 19 22 24 25 25 25 24 23 23 23 23 20 18 19 22 23 22 21 22 23 24 24 23 23 23 23 23 22 22 21 21 21 21 21 21 22 23 23 23 23 23
20 21 21 23 24 25 25 26 26 25 24 23 22 21 20 22 24 24 23 24 23 23 24 23 23 22 23 23 22 22 22 22 22 21 21 21 21 22 23 23 23 23 23
21 21 22 23 24 24 24 24 25 24 24 24 23 22 22 23 24 25 25 24 24 24 23 23 23 23 23 23 22 22 21 21 21 21 21 22 22 22 22 21 21 20 19
Height
768 773 776 779 782 786 789 790 793 796 798 800 802 806 810 813 816 818 821 822 824 825 825 826 828 828 828 827 827 826 827 829 828 828 829 830 830 830 829 829 829 830 830
762 768 770 774 777 780 782 785 787 789 792 794 797 801 804 808 810 814 817 820 820 821 823 825 826 827 826 826 826 826 828 828 829 829 828 828 827 827 826 826 826 826 826
754 760 764 767 770 773 775 779 781 785 788 790 793 795 799 802 805 808 811 816 816 818 821 822 821 823 824 825 826 826 827 827 826 826 826 827 825 823 823 822 822 822 822
747 751 756 759 764 767 770 773 776 779 782 785 787 790 792 796 800 803 805 809 812 815 816 816 819 821 821 822 824 825 825 825 826 825 824 824 824 824 823 820 820 818 818
743 745 748 753 757 762 765 767 770 773 775 779 783 785 787 791 794 798 800 803 806 809 811 813 814 815 817 817 818 820 821 821 822 823 822 822 821 823 822 818 816 817 814
742 744 745 748 752 757 759 765 766 768 771 773 775 778 781 784 787 791 793 796 800 803 805 808 809 811 811 812 813 814 816 817 818 819 819 819 818 819 818 816 814 813 811
742 743 744 745 748 752 755 758 761 763 766 768 769 771 773 776 780 783 786 789 793 796 798 800 802 805 807 806 808 809 809 809 811 812 813 813 814 812 813 811 811 810 809
741 740 740 740 742 746 749 751 754 757 759 762 763 765 766 768 772 776 779 782 786 788 790 793 796 798 800 802 804 804 804 804 805 807 806 806 809 808 809 809 808 807 806
740 739 738 736 739 739 742 747 749 751 753 755 756 757 759 760 763 767 773 776 779 782 784 786 788 791 794 795 797 798 799 800 801 801 801 800 802 804 804 805 805 805 802
738 737 736 734 733 739 733 731 746 744 745 748 752 751 752 754 758 761 766 769 772 776 779 779 781 783 786 789 790 791 793 795 797 796 796 797 798 800 800 800 802 803 801
736 734 731 727 726 727 716 721 741 742 739 744 744 743 745 747 749 753 757 761 765 769 772 773 773 775 779 782 783 786 788 790 791 792 793 794 795 796 796 798 799 800 800
733 730 729 725 724 724 726 722 715 725 729 732 736 735 735 738 741 745 749 754 760 762 764 766 768 769 772 775 778 780 782 785 786 788 789 790 791 792 794 795 796 798 798
730 728 727 724 720 718 714 711 700 713 717 721 725 725 727 729 733 738 742 747 753 757 759 760 763 765 766 770 773 776 778 780 782 783 784 784 786 788 790 793 795 795 796
724 724 722 718 716 713 709 706 705 707 708 713 714 718 721 724 727 729 735 738 742 748 752 754 757 759 763 765 769 772 774 776 778 779 781 781 782 786 789 791 792 792 793
715 717 716 714 708 704 703 704 705 709 709 711 712 713 718 717 719 722 726 731 734 739 747 749 753 756 759 762 764 768 771 772 773 775 777 777 781 784 786 787 788 789 789
709 709 708 706 703 700 702 704 704 703 704 706 708 714 719 720 726 725 727 729 733 735 739 745 747 751 754 756 761 764 767 767 768 771 773 774 778 781 783 783 784 785 785
704 703 703 700 696 696 696 697 699 698 699 698 691 688 710 710 718 730 737 730 728 736 736 738 741 744 749 752 755 757 759 763 765 768 770 772 776 778 778 778 780 781 781
697 698 697 696 693 689 690 691 694 693 693 695 697 694 705 702 703 713 723 729 725 729 731 733 734 738 741 745 749 751 754 757 760 763 766 770 772 773 774 774 776 776 776
690 691 691 690 687 684 682 687 688 690 695 693 689 693 699 705 705 711 716 718 716 719 726 730 732 732 736 739 743 747 750 752 755 759 761 764 767 769 770 771 772 772 773
682 683 684 684 682 679 676 680 683 685 690 693 695 693 695 685 699 709 711 714 718 719 721 725 727 727 731 735 739 741 744 746 748 753 756 758 762 765 767 767 768 768 767
674 675 676 676 675 672 671 671 673 677 680 684 687 687 684 684 693 701 706 712 716 717 719 720 721 722 725 728 732 737 740 741 745 749 753 755 757 759 760 762 763 763 763
667 669 669 666 666 664 662 663 664 668 674 676 676 678 683 686 693 698 702 707 710 712 713 715 716 718 720 722 726 731 735 738 742 746 749 751 752 753 755 757 757 758 759
662 661 661 658 656 654 654 655 657 661 665 670 673 672 679 682 687 693 695 700 703 705 706 709 712 714 717 720 723 727 730 733 739 742 744 746 748 748 750 751 752 752 752
654 654 654 650 647 647 648 650 654 658 661 664 669 672 674 678 682 685 688 692 696 698 700 705 707 711 714 717 720 723 727 731 734 737 741 742 744 744 745 745 745 746 747
648 648 648 644 642 641 641 643 645 651 655 659 662 666 669 674 676 678 681 684 688 691 695 700 703 709 710 714 716 720 724 727 730 733 736 739 741 741 742 742 741 742 743
643 642 642 640 637 637 637 640 643 647 649 651 657 660 662 666 669 671 673 676 681 685 691 696 699 703 706 708 714 719 722 726 728 731 734 735 737 737 738 740 740 741 743
Wind_Speed
28 28 28 27 27 26 22 26 26 24 22 25 21 22 23 23 22 21 21 19 17 21 19 18 12 16 17 16 14 8 9 9 6 11 13 10 8 6 5 12 10 10 15
27 28 28 26 27 27 28 23 27 28 25 23 23 24 24 24 22 22 23 23 21 17 20 18 14 14 15 17 19 16 14 12 11 9 12 17 18 14 17 16 15 14 13
28 28 27 28 28 28 29 27 27 27 25 23 26 24 24 26 23 23 22 22 23 19 18 18 19 17 18 14 15 13 16 14 14 10 13 16 16 16 18 17 21 17 15
27 29 29 30 29 29 28 30 27 29 27 27 25 29 29 26 25 24 24 24 22 20 19 20 21 19 21 19 18 18 18 17 15 14 15 18 17 14 9 5 12 10 14
14 25 28 30 30 28 29 30 31 30 30 28 28 27 28 26 26 25 25 23 22 23 23 22 20 21 22 20 19 20 18 18 15 16 16 16 21 15 11 10 8 17 13
14 14 16 24 30 30 30 29 31 29 30 30 30 28 28 28 29 29 30 28 26 24 23 22 23 21 19 19 19 20 20 18 16 15 18 16 19 21 16 16 16 14 4
16 18 15 16 21 27 29 30 29 31 29 29 30 31 30 30 30 31 30 28 24 23 22 21 20 19 15 14 17 21 18 21 24 24 22 24 24 23 14 19 13 10 11
12 13 15 17 18 22 29 31 31 30 31 31 30 32 32 33 34 31 27 29 25 25 24 22 21 22 22 16 14 14 16 17 17 19 22 27 25 22 15 12 11 14 16
15 18 16 12 13 16 16 30 33 32 31 31 32 32 33 34 36 37 31 26 25 25 23 23 22 22 21 20 19 20 19 17 18 20 20 21 20 14 13 14 14 12 9
12 13 18 26 35 15 14 23 37 35 34 31 31 32 34 32 32 35 36 30 24 22 24 27 27 28 24 23 21 20 18 19 14 17 13 14 17 15 10 8 7 8 8
19 17 19 23 22 18 26 28 59 44 32 33 33 32 32 34 32 36 36 35 27 22 22 23 27 25 25 26 24 22 18 16 14 16 11 8 7 6 4 3 7 5 3
16 19 20 22 17 24 18 47 72 38 32 32 33 31 31 32 35 32 34 35 30 25 22 20 23 18 20 20 22 21 17 12 11 12 13 15 17 14 12 6 5 6 6
18 19 18 21 22 22 25 35 30 28 27 29 29 28 27 29 28 34 30 30 35 31 26 18 18 20 19 13 15 17 15 13 13 13 17 17 16 16 13 9 7 7 5
21 21 20 21 22 22 21 24 24 25 26 28 25 26 26 24 25 25 32 31 33 36 29 18 15 15 15 13 15 17 16 16 15 16 16 14 15 12 11 10 12 11 12
21 21 21 20 24 22 16 18 21 15 3 4 15 24 23 21 23 23 21 30 31 30 23 18 15 15 15 14 14 14 18 19 18 18 12 16 14 10 12 16 17 12 16
22 20 23 23 20 7 9 3 2 4 8 5 11 16 13 10 13 11 17 13 14 18 25 19 17 15 15 14 15 16 18 16 16 16 12 18 17 17 19 17 16 13 11
22 23 22 26 23 15 10 6 9 4 4 6 13 21 36 51 42 44 40 20 14 20 22 19 17 17 17 18 19 20 18 18 17 16 14 12 15 17 17 15 18 16 16
24 24 23 25 24 19 13 8 6 11 9 12 13 27 22 38 47 40 42 30 20 27 19 17 18 19 18 18 20 19 19 20 20 20 17 16 15 14 13 14 12 12 16
23 21 24 23 24 25 16 10 13 15 16 12 11 15 15 26 20 26 28 23 21 20 20 18 18 18 16 19 19 19 21 23 25 24 18 14 10 11 8 9 9 15 19
24 26 29 22 23 21 16 16 15 13 17 19 21 20 34 25 16 20 23 17 17 19 20 21 19 20 22 23 22 22 19 16 27 23 18 14 12 15 16 16 17 18 15
21 21 26 25 26 25 18 20 19 18 20 20 19 22 20 23 21 25 27 24 22 20 21 21 21 18 25 27 22 21 19 19 16 14 13 16 14 19 21 22 16 13 12
20 20 23 22 25 25 23 19 16 19 17 17 17 22 26 23 18 20 23 23 26 24 22 21 20 18 16 22 23 20 17 13 11 12 15 14 15 18 18 11 13 15 14
19 21 23 27 25 25 25 17 13 12 11 17 21 18 34 30 24 25 24 24 24 24 22 21 20 15 14 16 15 19 18 20 19 19 18 16 17 19 16 16 17 17 17
22 21 24 27 24 21 16 16 15 15 13 16 17 18 24 28 26 25 28 25 25 22 21 21 16 14 17 14 21 20 18 20 21 19 19 18 23 21 18 17 16 16 14
23 21 25 23 21 21 24 19 14 15 17 19 18 20 23 26 23 20 28 25 25 24 17 17 20 21 18 18 17 20 18 18 19 15 18 19 20 11 8 8 9 12 15
20 20 24 23 25 21 15 15 17 15 16 16 19 24 22 23 23 22 21 27 24 24 25 23 21 22 20 17 13 13 11 10 14 15 12 7 8 8 5 9 10 10 10
Wind_Direction
206 210 207 206 209 212 218 210 210 214 219 223 205 204 209 216 217 218 226 228 242 240 240 252 269 250 256 278 304 331 288 326 253 284 311 313 346 311 274 290 280 273 278
207 214 207 205 207 209 215 214 213 216 217 221 211 216 219 221 218 219 230 233 242 236 240 249 251 251 249 261 278 293 292 288 293 301 300 301 302 301 300 274 259 262 272
200 209 210 208 208 212 209 213 209 210 212 211 214 211 213 219 214 223 219 229 237 239 238 241 246 246 254 252 265 271 276 291 269 280 281 281 281 292 286 286 251 255 260
201 205 210 211 211 212 215 209 212 209 211 215 213 207 207 210 214 218 220 228 238 242 242 242 244 245 247 251 254 262 270 275 279 279 275 279 295 307 334 344 325 268 291
236 213 214 211 213 216 218 212 208 208 208 211 215 213 211 210 216 220 224 227 233 242 244 247 247 244 249 250 247 257 255 263 272 277 290 289 284 278 299 319 278 279 286
288 282 244 221 214 217 217 221 208 211 209 208 210 215 211 212 219 221 221 224 233 236 232 238 243 253 254 248 255 256 255 252 254 265 275 272 271 277 294 292 295 296 300
270 265 266 252 230 228 229 221 216 210 210 210 211 211 214 214 219 225 224 219 220 226 230 239 241 248 264 251 257 258 258 255 257 259 258 264 273 279 289 291 292 295 292
298 263 252 233 237 242 235 231 222 213 211 211 212 213 213 215 217 226 226 218 217 222 230 232 236 240 250 254 253 257 264 261 263 258 259 267 269 271 262 266 279 288 294
279 276 254 258 243 244 280 253 232 221 215 214 215 213 215 216 216 220 223 220 218 222 226 229 232 241 249 246 254 246 255 259 263 264 264 257 259 248 267 268 275 277 286
298 285 283 286 249 272 289 279 288 231 218 212 218 217 217 221 219 221 222 220 223 227 232 234 236 239 239 244 247 240 248 260 258 260 260 251 249 261 263 257 229 275 286
314 323 313 309 289 304 298 271 284 251 224 222 217 215 216 220 222 224 225 221 220 224 230 233 234 235 236 240 247 236 242 260 269 250 233 211 201 218 213 167 236 202 230
303 304 305 303 292 246 218 256 252 232 224 223 222 218 215 216 222 224 226 225 221 221 231 235 231 227 229 243 228 235 234 243 242 231 218 225 213 200 175 220 195 180 223
284 286 290 293 286 281 257 252 247 223 221 222 219 219 214 213 216 221 224 229 228 226 231 238 240 229 230 220 221 222 216 217 226 237 238 237 200 177 185 208 205 189 186
277 277 282 285 277 272 261 255 245 234 222 220 217 220 217 207 208 216 213 218 224 224 225 230 229 215 199 210 208 214 219 218 226 242 244 181 165 166 191 215 215 223 222
269 279 277 279 278 273 274 273 258 240 118 3 260 234 220 201 200 198 206 216 221 219 207 211 185 190 190 199 205 223 234 232 229 237 247 165 173 193 220 222 224 242 233
262 270 276 270 278 269 278 263 335 235 255 251 34 29 27 345 303 248 216 210 217 193 175 186 183 184 188 188 201 214 219 226 221 223 234 181 185 206 222 222 208 226 260
263 255 269 281 280 263 270 259 177 190 225 252 251 304 293 296 293 284 287 233 234 217 185 179 183 186 198 201 206 213 205 213 207 214 209 205 213 217 221 225 216 220 231
263 261 261 275 281 275 245 233 220 192 161 142 172 210 228 251 282 275 275 241 208 192 192 198 195 196 195 210 218 207 198 197 199 209 207 211 222 228 236 237 233 244 262
261 258 253 256 262 259 232 205 206 199 154 177 191 212 226 240 260 264 249 224 201 194 202 219 221 188 205 222 207 209 202 198 193 202 204 212 228 233 244 256 263 265 275
252 251 261 263 274 290 219 203 202 201 171 172 178 189 208 204 223 222 216 202 199 196 204 221 227 202 205 209 210 206 207 207 198 192 190 199 220 235 231 237 239 246 263
247 250 258 236 251 260 264 205 200 195 181 187 214 206 211 198 190 200 202 207 211 209 214 213 222 230 205 205 197 195 207 178 170 182 205 219 227 236 239 238 240 269 249
247 248 261 247 235 241 246 243 190 189 200 212 208 198 206 203 197 198 199 208 208 216 209 215 220 221 219 189 193 194 190 196 213 225 226 228 227 229 243 243 253 233 247
241 245 251 255 243 233 240 233 201 218 209 230 228 191 187 192 197 198 196 206 210 219 208 206 209 212 174 181 189 200 208 218 217 224 215 220 235 237 232 224 233 248 242
248 238 244 252 238 241 220 200 186 210 224 234 241 197 190 195 206 197 189 195 208 215 201 207 204 202 226 225 215 204 208 219 214 224 225 227 231 243 226 237 244 243 262
244 240 248 251 245 238 245 232 210 212 215 222 197 188 200 200 205 214 189 193 196 202 201 203 196 201 218 218 206 204 208 214 214 211 206 229 247 247 290 307 264 271 274
254 239 243 241 245 243 242 222 214 213 224 191 218 200 190 202 206 213 205 197 201 193 202 206 212 204 207 187 193 212 201 192 199 215 216 221 232 236 246 323 315 334 21